Content
SEND FEEDBACK

Daily
Averages
Monthly
Summary
United States of America

FRANKLINVILLE, NEW YORK


Home > North America > United States > New York
Elevation: 1550 feet     Latitude: 42 20N     Longitude: 078 28W

WEATHER
 
SELECT A DAY
Number of Records: 64,865;   Date Range: 1/2/95 - 12/19/14
 
SHARE

PRINT THIS DATA

[ ← Previous Day ]
WEATHER ALMANAC - FEBRUARY 13, 2013
[ Next Day → ]
[ °C ]   °F
Weather ElementAverageHighLow
Temperature28.8 °F35.6 °F (2:35 pm)21.2 °F (11:55 pm)
Dewpoint21.2 °F23 °F (3:35 am)19.4 °F (9:55 am)
Humidity74.2 %93 % (10:35 pm)56 % (1:15 pm)
Barometer29.72 in29.83 in (12:35 am)29.62 in (4:15 pm)
Wind Speed2.9 mph9.2 mph (5:35 pm)
Weather ElementAverage
Visibility10 mi
Wind DirectionSSE (173.8 °)

Weather ElementTotal
Precipitation---
Heating Degree Days36.6 (Base 65)
Averaged from 71 records on February 13, 2013
WEATHER CONDITIONS BREAKOUT
WIND DIRECTION BREAKOUT
WEATHER BY HOUR - FEBRUARY 13, 2013
[ °C ]   °F
Local TimeTemperatureDewpointHumidityBarometerVisibilityWind DirectionWind SpeedGust SpeedPrecipitationEventsConditions
12:35 AM26.6 °F21.2 °F80 %29.83 in10.0 miWest (260°)3.5 mphOvercast
12:55 AM26.6 °F21.2 °F80 %29.83 in10.0 miWest (260°)4.6 mphOvercast
1:15 AM26.6 °F21.2 °F80 %29.83 in10.0 miCalmOvercast
1:35 AM26.6 °F21.2 °F80 %29.83 in10.0 miWSW (250°)3.5 mphOvercast
1:55 AM26.6 °F21.2 °F80 %29.82 in10.0 miSW (220°)3.5 mphOvercast
2:15 AM26.6 °F21.2 °F80 %29.82 in10.0 miWSW (240°)3.5 mphOvercast
2:35 AM26.6 °F21.2 °F80 %29.82 in10.0 miSW (220°)3.5 mphOvercast
2:55 AM26.6 °F21.2 °F80 %29.80 in10.0 miCalmOvercast
3:15 AM26.6 °F21.2 °F80 %29.80 in10.0 miSW (220°)3.5 mphOvercast
3:35 AM26.6 °F23.0 °F86 %29.79 in10.0 miWSW (240°)3.5 mphOvercast
3:55 AM26.6 °F23.0 °F86 %29.78 in10.0 miWSW (250°)4.6 mphOvercast
4:15 AM26.6 °F23.0 °F86 %29.78 in10.0 miWSW (250°)3.5 mphOvercast
4:35 AM26.6 °F23.0 °F86 %29.78 in10.0 miWSW (240°)3.5 mphOvercast
4:55 AM26.6 °F21.2 °F80 %29.78 in10.0 miWSW (240°)3.5 mphOvercast
5:15 AM26.6 °F23.0 °F86 %29.78 in10.0 miCalmOvercast
5:35 AM26.6 °F21.2 °F80 %29.78 in10.0 miWSW (250°)4.6 mphOvercast
5:55 AM26.6 °F21.2 °F80 %29.78 in10.0 miCalmOvercast
6:15 AM26.6 °F21.2 °F80 %29.78 in10.0 miWSW (240°)5.8 mphOvercast
6:35 AM26.6 °F21.2 °F80 %29.78 in10.0 miWest (260°)4.6 mphOvercast
6:55 AM26.6 °F21.2 °F80 %29.78 in10.0 miWest (260°)6.9 mphOvercast
7:15 AM26.6 °F21.2 °F80 %29.77 in10.0 miWest (270°)3.5 mphOvercast
7:35 AM26.6 °F21.2 °F80 %29.77 in10.0 miCalmOvercast
7:55 AM26.6 °F21.2 °F80 %29.77 in10.0 miWSW (250°)3.5 mphOvercast
8:15 AM26.6 °F21.2 °F80 %29.77 in10.0 miCalmOvercast
8:35 AM26.6 °F21.2 °F80 %29.76 in10.0 miWest (260°)3.5 mphOvercast
8:55 AM26.6 °F21.2 °F80 %29.76 in10.0 miWSW (240°)3.5 mphOvercast
9:15 AM26.6 °F21.2 °F80 %29.75 in10.0 miCalmOvercast
9:35 AM28.4 °F21.2 °F74 %29.75 in10.0 miCalmOvercast
9:55 AM28.4 °F19.4 °F69 %29.74 in10.0 miSW (230°)3.5 mphMostly Cloudy
10:15 AM28.4 °F21.2 °F74 %29.74 in10.0 miCalmOvercast
10:35 AM28.4 °F19.4 °F69 %29.73 in10.0 miCalmMostly Cloudy
10:55 AM28.4 °F19.4 °F69 %29.72 in10.0 miCalmMostly Cloudy
11:15 AM30.2 °F19.4 °F64 %29.71 in10.0 miCalmScattered Clouds
11:35 AM30.2 °F19.4 °F64 %29.70 in10.0 miCalmClear
11:55 AM32.0 °F21.2 °F64 %29.70 in10.0 miCalmClear
12:15 PM32.0 °F21.2 °F64 %29.71 in10.0 miSouth (190°)5.8 mphClear
12:35 PM32.0 °F21.2 °F64 %29.70 in10.0 miCalmClear
12:55 PM33.8 °F21.2 °F60 %29.68 in10.0 miCalmClear
1:15 PM33.8 °F19.4 °F56 %29.67 in10.0 miCalmClear
1:35 PM33.8 °F21.2 °F60 %29.67 in10.0 miSSW (200°)6.9 mphClear
1:55 PM33.8 °F21.2 °F60 %29.66 in10.0 miSSW (210°)4.6 mphClear
2:15 PM33.8 °F21.2 °F60 %29.65 in10.0 miSSW (200°)3.5 mphClear
2:35 PM35.6 °F21.2 °F56 %29.64 in10.0 miSouth (170°)4.6 mphClear
2:55 PM35.6 °F21.2 °F56 %29.64 in10.0 miCalmClear
3:15 PM35.6 °F21.2 °F56 %29.63 in10.0 miCalmClear
3:35 PM33.8 °F21.2 °F60 %29.63 in10.0 miCalmClear
3:55 PM35.6 °F21.2 °F56 %29.63 in10.0 miCalmClear
4:15 PM33.8 °F21.2 °F60 %29.62 in10.0 miCalmClear
4:35 PM35.6 °F21.2 °F56 %29.62 in10.0 miCalmClear
4:55 PM33.8 °F19.4 °F56 %29.62 in10.0 miNorth (350°)3.5 mphClear
5:15 PM33.8 °F19.4 °F56 %29.62 in10.0 miNNW (330°)3.5 mphClear
5:35 PM32.0 °F19.4 °F60 %29.63 in10.0 miNNW (340°)9.2 mphClear
5:55 PM32.0 °F21.2 °F64 %29.63 in10.0 miNW (320°)3.5 mphClear
6:15 PM32.0 °F21.2 °F64 %29.64 in10.0 miNW (310°)5.8 mphClear
6:35 PM32.0 °F21.2 °F64 %29.64 in10.0 miNNW (340°)5.8 mphClear
6:55 PM30.2 °F21.2 °F69 %29.65 in10.0 miNNW (330°)5.8 mphClear
7:15 PM30.2 °F23.0 °F75 %29.66 in10.0 miNorth (350°)5.8 mphClear
7:35 PM28.4 °F23.0 °F80 %29.66 in10.0 miNorth (350°)6.9 mphScattered Clouds
7:55 PM28.4 °F23.0 °F80 %29.67 in10.0 miNorth (350°)6.9 mphScattered Clouds
8:15 PM28.4 °F23.0 °F80 %29.68 in10.0 miNNW (340°)4.6 mphMostly Cloudy
8:35 PM28.4 °F23.0 °F80 %29.68 in10.0 miNNW (340°)4.6 mphOvercast
8:55 PM26.6 °F21.2 °F80 %29.68 in10.0 miNNW (340°)3.5 mphOvercast
9:15 PM26.6 °F21.2 °F80 %29.69 in10.0 miNNW (330°)3.5 mphMostly Cloudy
9:35 PM26.6 °F21.2 °F80 %29.69 in10.0 miWNW (300°)3.5 mphScattered Clouds
9:55 PM24.8 °F21.2 °F86 %29.69 in10.0 miNW (310°)5.8 mphClear
10:15 PM24.8 °F21.2 °F86 %29.70 in10.0 miWNW (300°)3.5 mphClear
10:35 PM23.0 °F21.2 °F93 %29.70 in10.0 miWNW (290°)3.5 mphClear
10:55 PM23.0 °F21.2 °F93 %29.70 in10.0 miWNW (300°)4.6 mphClear
11:15 PM23.0 °F21.2 °F93 %29.70 in10.0 miCalmClear
11:35 PM23.0 °F21.2 °F93 %29.71 in10.0 miCalmClear
11:55 PM21.2 °F19.4 °F93 %29.71 in10.0 miCalmClear
Hourly data recorded from KOLE, located miles away from Franklinville, New York







STORIES FROM OUR PARTNERS